Location: Mahannah Oil Field
(37.4664°N, 96.6003°W)
Time: 08:43:12
(UTC+00:00)

Courier 1B - Pass Details

Date: 21 January 2021
Orbit: 962 x 1209 km, 28.3° (Epoch: 02 March)

Event Time Altitude Azimuth Distance (km) Brightness Sun altitude
Rises 12:31:09 0° 259° (W) 3,673 - -13.2°
Exits shadow 12:33:51 - 245° (WSW) 2,998 9.6 -12.6°
Reaches altitude 10° 12:35:05 10° 237° (WSW) 2,758 9.5 -12.4°
Maximum altitude 12:38:34 15° 205° (SSW) 2,462 9.5 -11.7°
Drops below altitude 10° 12:42:07 10° 173° (S) 2,836 10.2 -11.1°
Sets 12:46:17 0° 151° (SSE) 3,844 11.4 -10.3°
